Tracking 19709 objects as of 20-Jun-2019
HD Live streaming from Space Station
objects crossing your sky now

SL-12 R/B(2)

Track SL-12 R/B(2) now!


NORAD ID: 25900
Int'l Code: 1999-047E
Perigee: 35,380.6 km
Apogee: 36,267.8 km
Inclination: 14.0 °
Period: 1,437.7 minutes
Semi major axis: 42195 km
RCS: 1.9952 m2 (large)
Launch date: September 6, 1999
Source: Commonwealth of Independent States (former USSR) (CIS)
Launch site: TYURATAM MISSILE AND SPACE COMPLEX (TTMTR)

Note: This is a ROCKET BODY
aabbcc
Your satellite tracking list
Your tracking list is empty




NASA's NSSDC Master Catalog

Two Line Element Set (TLE):
1 25900U 99047E   19169.84626082 -.00000247 +00000-0 +00000-0 0  9991
2 25900 013.9666 019.5091 0105136 355.7460 355.2612 01.00163285072380
Source of the keplerian elements: AFSPC